Location: Newark
(45.6833°N, 12.6333°E)
Time: 06:58:34
(UTC+00:00)

N. Korean satellite - Pass Details

Date: 24 November 2019
Orbit: 456 x 506 km, 97.2° (Epoch: 08 December)

Event Time Altitude Azimuth Distance (km) Brightness Sun altitude
Rises 05:33:04 0° 5° (N) 2,610 10.1 -8.3°
Reaches altitude 10° 05:35:14 10° 359° (N) 1,715 9.1 -8.0°
Maximum altitude 05:38:44 42° 288° (WNW) 717 7.0 -7.4°
Drops below altitude 10° 05:42:10 10° 216° (SW) 1,677 9.2 -6.9°
Sets 05:44:16 0° 210° (SSW) 2,544 10.1 -6.5°
